Location: PSU-Greenbush Astrophysical Observatory
(37.5140°N, 94.9880°W)
Time: 16:14:12
(UTC-06:00)

Vanguard 2 - All Passes

Search period start: 17 January 2020 00:00
Search period end: 27 January 2020 00:00
Orbit: 553 x 2938 km, 32.9° (Epoch: 17 January)

Date Brightness Start Highest point End Pass type
(mag) Time Alt. Az. Time Alt. Az. Time Alt. Az.
17 Jan - 11:29:52 10° SSW 11:35:48 17° SSE 11:40:21 10° ESE daylight
17 Jan - 13:37:47 10° SW 13:44:53 35° SSE 13:49:37 10° E daylight
17 Jan - 15:47:45 10° WSW 15:53:09 49° S 15:57:09 10° ESE daylight
17 Jan - 17:57:15 10° WSW 18:00:55 29° SSW 18:04:25 10° SE visible
18 Jan - 11:46:06 10° SSW 11:53:48 24° SSE 11:59:14 10° ESE daylight
18 Jan - 13:55:25 10° WSW 14:02:47 43° S 14:07:35 10° E daylight
18 Jan - 16:05:43 10° W 16:11:01 48° S 16:14:57 10° ESE daylight
18 Jan - 18:15:27 10° WSW 18:18:40 22° SSW 18:21:46 10° SSE visible
19 Jan - 09:57:12 10° S 10:01:59 13° SSE 10:06:04 10° SE daylight
19 Jan - 12:02:58 10° SW 12:11:47 31° SSE 12:17:37 10° ESE daylight
19 Jan - 14:13:14 10° WSW 14:20:41 50° S 14:25:28 10° E daylight
19 Jan - 16:23:44 10° W 16:28:49 44° S 16:32:42 10° ESE daylight
19 Jan - 18:33:59 10° WSW 18:36:21 15° SSW 18:38:41 10° S visible
20 Jan - 10:12:01 10° SSW 10:20:02 19° SSE 10:26:07 10° ESE daylight
20 Jan - 12:20:15 10° SW 12:29:45 39° SSE 12:35:45 10° E daylight
20 Jan - 14:31:10 10° WSW 14:38:34 55° S 14:43:19 10° E daylight
20 Jan - 16:41:48 10° W 16:46:35 36° SSW 16:50:20 10° SE daylight
21 Jan - 10:28:07 10° SSW 10:38:04 26° SSE 10:45:02 10° ESE daylight
21 Jan - 12:37:51 10° SW 12:47:43 47° SSE 12:53:45 10° E daylight
21 Jan - 14:49:11 10° W 14:56:27 56° S 15:01:07 10° ESE daylight
21 Jan - 16:59:57 10° W 17:04:17 28° SSW 17:07:48 10° SE daylight
22 Jan - 08:39:25 10° S 08:45:41 14° SSE 08:51:02 10° ESE daylight
22 Jan - 10:44:51 10° SW 10:56:04 33° SSE 11:03:28 10° E daylight
22 Jan - 12:55:39 10° WSW 13:05:38 54° S 13:11:38 10° E daylight
22 Jan - 15:07:16 10° W 15:14:17 53° S 15:18:53 10° ESE daylight
22 Jan - 17:18:16 10° WSW 17:21:55 20° SSW 17:25:00 10° SSE daylight
23 Jan - 08:54:02 10° S 09:03:41 20° SSE 09:11:15 10° ESE daylight
23 Jan - 11:02:01 10° SW 11:14:03 41° SSE 11:21:39 10° E daylight
23 Jan - 13:13:36 10° WSW 13:23:34 59° S 13:29:30 10° E daylight
23 Jan - 15:25:22 10° W 15:32:05 47° SSW 15:36:34 10° ESE daylight
23 Jan - 17:37:03 10° WSW 17:39:29 14° SSW 17:41:40 10° S daylight
24 Jan - 09:09:53 10° SSW 09:21:41 27° SSE 09:30:18 10° E daylight
24 Jan - 11:19:31 10° SW 11:32:01 49° SSE 11:39:41 10° E daylight
24 Jan - 13:31:40 10° WSW 13:41:29 62° S 13:47:19 10° E daylight
24 Jan - 15:43:30 10° W 15:49:50 39° SSW 15:54:08 10° SE daylight
25 Jan - 07:22:15 10° SSE 07:28:53 14° SE 07:34:48 10° ESE daylight
25 Jan - 09:26:27 10° SSW 09:39:40 34° SSE 09:48:52 10° E daylight
25 Jan - 11:37:16 10° WSW 11:50:00 56° SSE 11:57:36 10° E daylight
25 Jan - 13:49:46 10° W 13:59:23 62° S 14:05:06 10° ESE daylight
25 Jan - 16:01:45 10° W 16:07:28 30° SSW 16:11:33 10° SE daylight
26 Jan - 07:36:19 10° S 07:46:48 20° SE 07:55:32 10° ESE daylight
26 Jan - 09:43:27 10° SW 09:57:39 42° SSE 10:07:08 10° E daylight
26 Jan - 11:55:11 10° WSW 12:07:58 62° S 12:15:30 10° E daylight
26 Jan - 14:07:56 10° W 14:17:14 58° SSW 14:22:50 10° ESE daylight
26 Jan - 16:20:10 10° W 16:25:00 22° SSW 16:28:40 10° SSE daylight
